Location: Ffald-y-Brenin
(52.0833°N, 4.0000°W)
Time: 06:29:42
(UTC+00:00)

Cosmos 1484 Rocket - Pass Details

Date: 18 February 2020
Orbit: 507 x 559 km, 97.4° (Epoch: 28 March)

Event Time Altitude Azimuth Distance (km) Brightness Sun altitude
Rises 04:59:33 0° 17° (NNE) 2,711 6.7 -23.1°
Reaches altitude 10° 05:01:43 10° 23° (NNE) 1,823 5.9 -22.8°
Maximum altitude 05:05:33 49° 99° (E) 715 3.7 -22.2°
Drops below altitude 10° 05:09:25 10° 176° (S) 1,831 5.4 -21.6°
Enters shadow 05:11:12 - 181° (S) 2,559 6.1 -21.4°
